Location: ????????
(55.6333°N, 37.7000°E)
Time: 02:39:00
(UTC+00:00)

Cosmos 220 Rocket - Pass Details

Date: 19 May 2025
Orbit: 546 x 580 km, 74.0° (Epoch: 13 June)

Event Time Altitude Azimuth Distance (km) Brightness Sun altitude
Exits shadow 20:20:52 - 217° (SW) 2,000 6.3 -13.2°
Reaches altitude 10° 20:21:17 10° 218° (SW) 1,830 6.1 -13.2°
Maximum altitude 20:25:20 65° 301° (WNW) 609 4.2 -13.3°
Drops below altitude 10° 20:29:23 10° 24° (NNE) 1,833 7.3 -13.5°
Sets 20:31:35 0° 27° (NNE) 2,730 8.2 -13.5°
